ICT,Max TemperatureF,Mean TemperatureF,Min TemperatureF,Max Dew PointF,MeanDew PointF,Min DewpointF,Max Humidity, Mean Humidity, Min Humidity, Max Sea Level PressureIn, Mean Sea Level PressureIn, Min Sea Level PressureIn, Max VisibilityMiles, Mean VisibilityMiles, Min VisibilityMiles, Max Wind SpeedMPH, Mean Wind SpeedMPH, Max Gust SpeedMPH,PrecipitationIn, CloudCover, Events, WindDirDegrees
2014-4-1,98,90,81,77,70,66,81,54,37,29.78,29.71,29.62,6,6,6,20,8,,0.00,2,,216
2014-4-2,98,88,78,74,69,63,79,52,32,29.80,29.73,29.65,6,6,6,12,6,,0.00,2,,150
2014-4-3,96,89,82,73,69,64,74,49,34,29.83,29.75,29.65,6,6,6,14,10,,0.00,2,,167
2014-4-4,91,84,78,76,74,72,89,73,52,29.87,29.80,29.71,6,6,1,16,6,,0.00,3,Rain-Thunderstorm,209
2014-4-5,91,82,73,73,71,70,89,69,49,29.95,29.83,29.74,6,6,1,16,7,,0.00,5,Rain-Thunderstorm,191
2014-4-6,91,82,73,73,70,66,89,64,43,29.92,29.85,29.77,6,6,4,16,7,,0.00,3,Rain,236
2014-4-7,95,84,74,76,73,70,86,63,44,29.92,29.83,29.74,6,6,6,12,7,,0.00,3,,182
2014-4-8,93,86,78,75,72,68,83,65,46,29.89,29.82,29.74,6,6,5,16,8,,0.00,2,,184
2014-4-9,96,86,77,73,70,66,83,59,39,29.86,29.79,29.68,6,6,6,10,6,,0.00,2,,171
2014-4-10,95,86,78,76,72,68,89,62,44,29.86,29.79,29.68,6,6,4,18,8,,0.00,2,Rain,178
2014-4-11,93,85,77,73,72,70,89,68,49,29.86,29.78,29.68,6,6,3,16,7,23,0.00,3,Rain-Thunderstorm,147
2014-4-12,95,86,77,75,73,70,89,66,44,29.83,29.76,29.65,6,6,4,22,6,,0.00,3,Rain,176
2014-4-13,95,86,77,77,73,68,89,63,41,29.86,29.78,29.68,6,6,5,16,7,,0.00,2,,185
2014-4-14,87,82,78,77,74,72,89,74,62,29.89,29.80,29.71,6,5,2,17,6,,0.00,2,Rain-Thunderstorm,204
2014-4-15,86,82,78,75,74,68,89,76,62,29.89,29.81,29.74,6,6,6,12,4,,0.00,4,,168
2014-4-16,93,85,77,75,71,68,89,61,44,29.86,29.77,29.68,6,6,6,15,6,,0.00,3,,179
2014-4-17,91,84,78,75,72,70,89,66,49,29.80,29.74,29.68,6,6,6,15,7,,0.00,2,,201
2014-4-18,91,84,78,75,73,68,79,65,46,29.83,29.77,29.71,6,6,5,13,6,,0.00,4,Rain,185
2014-4-19,95,86,77,76,73,68,89,61,41,29.84,29.75,29.68,6,6,6,12,7,,0.00,2,,178
2014-4-20,95,88,80,73,70,64,74,53,36,29.80,29.73,29.65,6,6,6,10,7,,0.00,2,,181
2014-4-21,96,88,80,75,72,68,84,57,41,29.80,29.75,29.68,6,6,6,10,6,,0.00,2,,202
2014-4-22,96,87,78,75,72,68,78,59,41,29.87,29.79,29.68,6,6,3,13,5,,0.00,3,Rain-Thunderstorm,172
2014-4-23,96,88,80,77,73,68,84,59,39,29.83,29.75,29.65,6,6,6,12,7,,0.00,2,,174
2014-4-24,96,88,80,77,72,68,84,57,39,29.80,29.74,29.65,6,6,6,13,7,,0.00,2,,187
2014-4-25,96,88,79,77,71,66,79,55,37,29.83,29.75,29.65,6,6,6,10,6,,0.00,2,,182
2014-4-26,98,89,80,75,71,64,84,55,37,29.83,29.74,29.65,6,6,6,15,6,,0.00,2,,185
2014-4-27,96,88,80,75,72,68,84,56,44,29.83,29.76,29.65,6,6,6,14,7,,0.00,3,Rain,184
2014-4-28,96,86,77,75,72,68,89,62,39,29.86,29.77,29.65,6,6,1,16,6,,0.00,3,Rain-Thunderstorm,185
2014-4-29,91,84,77,73,72,70,89,67,52,29.86,29.78,29.68,6,6,5,15,5,,0.00,3,Rain-Thunderstorm,208
2014-4-30,93,86,78,75,74,72,89,71,52,29.83,29.76,29.68,6,6,5,10,3,,0.00,2,Rain,192